Retour au catalogue

STARLINK-5358

ActifCommunicationsVLEO
NORAD 57143·PAYLOAD·🇺🇸 United States

Lancé Jun 23, 2023 depuis Cape Canaveral Space Force Station

Loading…

Prochains Passages (prochaines 24 heures)

TLE

FraisSource: CelesTrak SupGP

Époque: Sep 15, 2026, 03:10 UTC

1 57143C 23090AU  26258.13243056 -.00015681  00000+0 -56815-3 0  2589
2 57143  43.0039 273.2806 0001753 279.9486 251.8298 15.27573843    11

Suivez STARLINK-5358 en temps réel avec AllMySat

Download on the App Store